Time,TemperatureF,DewpointF,PressureIn,WindDirection,WindDirectionDegrees,WindSpeedMPH,WindSpeedGustMPH,Humidity,HourlyPrecipIn,Conditions,Clouds,dailyrainin,SolarRadiationWatts/m^2,SoftwareType,DateUTC
2013-04-27 00:00:00,49.3,43.1,30.40,NW,310,0.0,0.0,79,0.00,,,0.00,0,Wunderground v.1.15,2013-04-27 04:00:00,
2013-04-27 00:02:00,49.4,43.2,30.39,NW,310,0.0,0.0,79,0.00,,,0.00,0,Wunderground v.1.15,2013-04-27 04:02:00,
2013-04-27 00:08:00,49.5,43.3,30.40,NW,310,0.0,0.0,79,0.00,,,0.00,0,Wunderground v.1.15,2013-04-27 04:08:00,
2013-04-27 00:14:00,49.7,43.5,30.40,NW,310,0.0,0.0,79,0.00,,,0.00,0,Wunderground v.1.15,2013-04-27 04:14:00,
2013-04-27 00:18:00,49.7,43.5,30.40,NW,310,0.0,0.0,79,0.00,,,0.00,0,Wunderground v.1.15,2013-04-27 04:18:00,
2013-04-27 00:24:00,49.7,43.1,30.40,NW,310,0.0,0.0,78,0.00,,,0.00,0,Wunderground v.1.15,2013-04-27 04:24:00,
2013-04-27 00:26:00,49.6,42.7,30.40,NW,310,0.0,0.0,77,0.00,,,0.00,0,Wunderground v.1.15,2013-04-27 04:26:00,
2013-04-27 00:32:00,49.5,42.2,30.40,NW,310,0.0,0.0,76,0.00,,,0.00,0,Wunderground v.1.15,2013-04-27 04:32:00,
2013-04-27 00:38:00,49.2,41.6,30.39,NW,310,0.0,0.0,75,0.00,,,0.00,0,Wunderground v.1.15,2013-04-27 04:38:00,
2013-04-27 00:44:00,48.8,40.9,30.39,NW,310,0.0,0.0,74,0.00,,,0.00,0,Wunderground v.1.15,2013-04-27 04:44:00,
2013-04-27 00:50:00,48.2,40.3,30.39,NW,310,0.0,0.0,74,0.00,,,0.00,0,Wunderground v.1.15,2013-04-27 04:50:00,
2013-04-27 00:55:00,47.4,40.2,30.39,NW,310,0.0,0.0,76,0.00,,,0.00,0,Wunderground v.1.15,2013-04-27 04:55:00,
2013-04-27 01:02:00,46.8,40.0,30.39,NW,310,0.0,0.0,77,0.00,,,0.00,0,Wunderground v.1.15,2013-04-27 05:02:00,
2013-04-27 01:08:00,46.2,39.7,30.39,NW,310,0.0,0.0,78,0.00,,,0.00,0,Wunderground v.1.15,2013-04-27 05:08:00,
2013-04-27 01:13:00,45.9,39.8,30.39,NW,310,0.0,0.0,79,0.00,,,0.00,0,Wunderground v.1.15,2013-04-27 05:13:00,
2013-04-27 01:20:00,45.7,39.2,30.39,NW,310,0.0,0.0,78,0.00,,,0.00,0,Wunderground v.1.15,2013-04-27 05:20:00,
2013-04-27 01:26:00,45.4,39.3,30.39,NW,310,0.0,0.0,79,0.00,,,0.00,0,Wunderground v.1.15,2013-04-27 05:26:00,
2013-04-27 01:32:00,45.2,39.7,30.39,NW,310,0.0,0.0,81,0.00,,,0.00,0,Wunderground v.1.15,2013-04-27 05:32:00,
2013-04-27 01:38:00,45.0,39.8,30.39,NW,310,0.0,0.0,82,0.00,,,0.00,0,Wunderground v.1.15,2013-04-27 05:38:00,
2013-04-27 01:44:00,44.7,39.5,30.39,NW,310,0.0,0.0,82,0.00,,,0.00,0,Wunderground v.1.15,2013-04-27 05:44:00,
2013-04-27 01:50:00,44.3,39.2,30.39,NW,310,0.0,0.0,82,0.00,,,0.00,0,Wunderground v.1.15,2013-04-27 05:50:00,
2013-04-27 01:56:00,43.9,38.8,30.39,NW,310,0.0,0.0,82,0.00,,,0.00,0,Wunderground v.1.15,2013-04-27 05:56:00,
2013-04-27 02:02:00,43.7,38.6,30.39,NW,310,0.0,0.0,82,0.00,,,0.00,0,Wunderground v.1.15,2013-04-27 06:02:00,
2013-04-27 02:08:00,43.5,38.4,30.39,NW,310,0.0,0.0,82,0.00,,,0.00,0,Wunderground v.1.15,2013-04-27 06:08:00,
2013-04-27 02:14:00,43.4,38.6,30.38,NW,310,0.0,0.0,83,0.00,,,0.00,0,Wunderground v.1.15,2013-04-27 06:14:00,
2013-04-27 02:20:00,43.1,38.6,30.38,NW,310,0.0,0.0,84,0.00,,,0.00,0,Wunderground v.1.15,2013-04-27 06:20:00,
2013-04-27 02:26:00,42.9,38.7,30.38,NW,310,0.0,0.0,85,0.00,,,0.00,0,Wunderground v.1.15,2013-04-27 06:26:00,
2013-04-27 02:32:00,42.7,38.5,30.38,NW,310,0.0,0.0,85,0.00,,,0.00,0,Wunderground v.1.15,2013-04-27 06:32:00,
2013-04-27 02:37:00,42.4,38.5,30.38,NW,310,0.0,0.0,86,0.00,,,0.00,0,Wunderground v.1.15,2013-04-27 06:37:00,
2013-04-27 02:44:00,42.1,38.5,30.38,NW,310,0.0,0.0,87,0.00,,,0.00,0,Wunderground v.1.15,2013-04-27 06:44:00,
2013-04-27 02:50:00,41.9,38.3,30.38,NW,310,0.0,0.0,87,0.00,,,0.00,0,Wunderground v.1.15,2013-04-27 06:50:00,
2013-04-27 02:56:00,41.9,38.6,30.38,NW,310,0.0,0.0,88,0.00,,,0.00,0,Wunderground v.1.15,2013-04-27 06:56:00,
2013-04-27 03:02:00,41.8,38.5,30.38,NW,310,0.0,0.0,88,0.00,,,0.00,0,Wunderground v.1.15,2013-04-27 07:02:00,
2013-04-27 03:08:00,41.7,38.7,30.38,NW,310,0.0,0.0,89,0.00,,,0.00,0,Wunderground v.1.15,2013-04-27 07:08:00,
2013-04-27 03:14:00,41.6,38.6,30.38,NW,310,0.0,0.0,89,0.00,,,0.00,0,Wunderground v.1.15,2013-04-27 07:14:00,
2013-04-27 03:20:00,41.6,38.6,30.38,NW,310,0.0,0.0,89,0.00,,,0.00,0,Wunderground v.1.15,2013-04-27 07:20:00,
2013-04-27 03:26:00,41.4,38.4,30.38,NW,310,0.0,0.0,89,0.00,,,0.00,0,Wunderground v.1.15,2013-04-27 07:26:00,
2013-04-27 03:32:00,41.2,38.2,30.38,NW,310,0.0,0.0,89,0.00,,,0.00,0,Wunderground v.1.15,2013-04-27 07:32:00,
2013-04-27 03:38:00,41.0,38.0,30.38,NW,310,0.0,0.0,89,0.00,,,0.00,0,Wunderground v.1.15,2013-04-27 07:38:00,
2013-04-27 03:44:00,40.9,38.2,30.38,NW,310,0.0,0.0,90,0.00,,,0.00,0,Wunderground v.1.15,2013-04-27 07:44:00,
2013-04-27 03:50:00,40.9,38.5,30.38,NW,310,0.0,0.0,91,0.00,,,0.00,0,Wunderground v.1.15,2013-04-27 07:50:00,
2013-04-27 03:56:00,40.9,38.5,30.38,NW,310,0.0,0.0,91,0.00,,,0.00,0,Wunderground v.1.15,2013-04-27 07:56:00,
2013-04-27 04:02:00,40.9,38.5,30.38,NW,310,0.0,0.0,91,0.00,,,0.00,0,Wunderground v.1.15,2013-04-27 08:02:00,
2013-04-27 04:07:00,40.7,38.3,30.38,NW,310,0.0,0.0,91,0.00,,,0.00,0,Wunderground v.1.15,2013-04-27 08:07:00,
2013-04-27 04:14:00,40.4,38.0,30.38,NW,310,0.0,0.0,91,0.00,,,0.00,0,Wunderground v.1.15,2013-04-27 08:14:00,
2013-04-27 04:20:00,40.4,38.0,30.38,NW,310,0.0,0.0,91,0.00,,,0.00,0,Wunderground v.1.15,2013-04-27 08:20:00,
2013-04-27 04:26:00,40.3,38.2,30.38,NW,310,0.0,0.0,92,0.00,,,0.00,0,Wunderground v.1.15,2013-04-27 08:26:00,
2013-04-27 04:31:00,40.2,38.1,30.38,NW,310,0.0,0.0,92,0.00,,,0.00,0,Wunderground v.1.15,2013-04-27 08:31:00,
2013-04-27 04:38:00,40.2,38.1,30.38,NW,310,0.0,0.0,92,0.00,,,0.00,0,Wunderground v.1.15,2013-04-27 08:38:00,
2013-04-27 04:44:00,40.0,37.9,30.38,NW,310,0.0,0.0,92,0.00,,,0.00,0,Wunderground v.1.15,2013-04-27 08:44:00,
2013-04-27 04:50:00,40.0,37.9,30.38,NW,310,0.0,0.0,92,0.00,,,0.00,0,Wunderground v.1.15,2013-04-27 08:50:00,
2013-04-27 04:56:00,40.0,37.9,30.38,NW,310,0.0,0.0,92,0.00,,,0.00,0,Wunderground v.1.15,2013-04-27 08:56:00,
2013-04-27 05:02:00,39.9,37.8,30.38,NW,310,0.0,0.0,92,0.00,,,0.00,0,Wunderground v.1.15,2013-04-27 09:02:00,
2013-04-27 05:08:00,39.8,37.7,30.38,NW,310,0.0,0.0,92,0.00,,,0.00,0,Wunderground v.1.15,2013-04-27 09:08:00,
2013-04-27 05:14:00,39.7,37.6,30.38,NW,310,0.0,0.0,92,0.00,,,0.00,0,Wunderground v.1.15,2013-04-27 09:14:00,
2013-04-27 05:19:00,39.5,37.4,30.38,NW,310,0.0,0.0,92,0.00,,,0.00,0,Wunderground v.1.15,2013-04-27 09:19:00,
2013-04-27 05:26:00,39.4,37.3,30.38,NW,310,0.0,0.0,92,0.00,,,0.00,0,Wunderground v.1.15,2013-04-27 09:26:00,
2013-04-27 05:32:00,39.3,37.2,30.38,NW,310,0.0,0.0,92,0.00,,,0.00,0,Wunderground v.1.15,2013-04-27 09:32:00,
2013-04-27 05:38:00,39.3,37.2,30.38,NW,310,0.0,0.0,92,0.00,,,0.00,0,Wunderground v.1.15,2013-04-27 09:38:00,
2013-04-27 05:43:00,39.2,37.1,30.39,NW,310,0.0,0.0,92,0.00,,,0.00,0,Wunderground v.1.15,2013-04-27 09:43:00,
2013-04-27 05:50:00,39.1,37.0,30.39,NW,310,0.0,0.0,92,0.00,,,0.00,0,Wunderground v.1.15,2013-04-27 09:50:00,
2013-04-27 05:56:00,39.0,36.9,30.38,NW,310,0.0,0.0,92,0.00,,,0.00,0,Wunderground v.1.15,2013-04-27 09:56:00,
2013-04-27 06:02:00,38.8,36.7,30.39,NW,310,0.0,0.0,92,0.00,,,0.00,0,Wunderground v.1.15,2013-04-27 10:02:00,
2013-04-27 06:08:00,38.6,36.5,30.39,NW,310,0.0,0.0,92,0.00,,,0.00,0,Wunderground v.1.15,2013-04-27 10:08:00,
2013-04-27 06:14:00,38.3,35.9,30.39,NW,310,0.0,0.0,91,0.00,,,0.00,7,Wunderground v.1.15,2013-04-27 10:14:00,
2013-04-27 06:20:00,38.2,35.8,30.39,NW,310,0.0,0.0,91,0.00,,,0.00,11,Wunderground v.1.15,2013-04-27 10:20:00,
2013-04-27 06:26:00,38.1,35.7,30.39,NW,310,0.0,0.0,91,0.00,,,0.00,12,Wunderground v.1.15,2013-04-27 10:26:00,
2013-04-27 06:32:00,38.0,35.6,30.39,NW,310,0.0,0.0,91,0.00,,,0.00,16,Wunderground v.1.15,2013-04-27 10:32:00,
2013-04-27 06:38:00,37.9,35.5,30.39,NW,310,0.0,0.0,91,0.00,,,0.00,19,Wunderground v.1.15,2013-04-27 10:38:00,
2013-04-27 06:44:00,38.0,35.6,30.40,NW,310,0.0,0.0,91,0.00,,,0.00,21,Wunderground v.1.15,2013-04-27 10:44:00,
2013-04-27 06:50:00,38.3,35.9,30.40,NW,310,0.0,0.0,91,0.00,,,0.00,28,Wunderground v.1.15,2013-04-27 10:50:00,
2013-04-27 06:56:00,38.7,36.3,30.40,NW,310,0.0,0.0,91,0.00,,,0.00,26,Wunderground v.1.15,2013-04-27 10:56:00,
2013-04-27 07:02:00,39.0,36.6,30.40,NW,310,0.0,0.0,91,0.00,,,0.00,30,Wunderground v.1.15,2013-04-27 11:02:00,
2013-04-27 07:08:00,39.2,36.5,30.41,NW,310,0.0,0.0,90,0.00,,,0.00,32,Wunderground v.1.15,2013-04-27 11:08:00,
2013-04-27 07:14:00,39.6,36.9,30.41,NW,310,0.0,0.0,90,0.00,,,0.00,33,Wunderground v.1.15,2013-04-27 11:14:00,
2013-04-27 07:20:00,40.1,37.4,30.41,NW,310,0.0,0.0,90,0.00,,,0.00,37,Wunderground v.1.15,2013-04-27 11:20:00,
2013-04-27 07:26:00,40.5,37.5,30.41,NW,310,0.0,0.0,89,0.00,,,0.00,39,Wunderground v.1.15,2013-04-27 11:26:00,
2013-04-27 07:32:00,41.4,38.1,30.41,NNE,32,0.0,0.0,88,0.00,,,0.00,42,Wunderground v.1.15,2013-04-27 11:32:00,
2013-04-27 07:38:00,42.2,38.6,30.41,NNE,32,0.0,1.0,87,0.00,,,0.00,44,Wunderground v.1.15,2013-04-27 11:38:00,
2013-04-27 07:44:00,43.1,38.9,30.41,NNE,32,0.0,1.0,85,0.00,,,0.00,51,Wunderground v.1.15,2013-04-27 11:44:00,
2013-04-27 07:50:00,43.9,39.1,30.41,NNE,32,0.0,1.0,83,0.00,,,0.00,54,Wunderground v.1.15,2013-04-27 11:50:00,
2013-04-27 07:56:00,45.0,39.2,30.41,NNE,32,1.0,1.0,80,0.00,,,0.00,74,Wunderground v.1.15,2013-04-27 11:56:00,
2013-04-27 08:02:00,46.2,39.4,30.41,ENE,59,1.0,1.0,77,0.00,,,0.00,56,Wunderground v.1.15,2013-04-27 12:02:00,
2013-04-27 08:08:00,47.3,39.8,30.42,NE,50,2.0,5.0,75,0.00,,,0.00,323,Wunderground v.1.15,2013-04-27 12:08:00,
2013-04-27 08:14:00,48.2,40.3,30.42,NNE,24,1.0,2.0,74,0.00,,,0.00,350,Wunderground v.1.15,2013-04-27 12:14:00,
2013-04-27 08:20:00,49.2,40.6,30.42,NE,46,1.0,2.0,72,0.00,,,0.00,378,Wunderground v.1.15,2013-04-27 12:20:00,
2013-04-27 08:26:00,50.2,40.8,30.42,ESE,113,2.0,2.0,70,0.00,,,0.00,394,Wunderground v.1.15,2013-04-27 12:26:00,
2013-04-27 08:32:00,51.2,41.0,30.42,NNE,27,3.0,4.0,68,0.00,,,0.00,413,Wunderground v.1.15,2013-04-27 12:32:00,
2013-04-27 08:38:00,52.1,40.7,30.42,ENE,76,2.0,4.0,65,0.00,,,0.00,436,Wunderground v.1.15,2013-04-27 12:38:00,
2013-04-27 08:44:00,52.8,40.5,30.42,NNE,29,2.0,3.0,63,0.00,,,0.00,457,Wunderground v.1.15,2013-04-27 12:44:00,
2013-04-27 08:50:00,53.6,40.9,30.42,ENE,73,1.0,1.0,62,0.00,,,0.00,475,Wunderground v.1.15,2013-04-27 12:50:00,
2013-04-27 08:56:00,54.4,40.8,30.42,South,180,1.0,5.0,60,0.00,,,0.00,494,Wunderground v.1.15,2013-04-27 12:56:00,
2013-04-27 09:02:00,55.1,40.6,30.42,WSW,244,1.0,4.0,58,0.00,,,0.00,513,Wunderground v.1.15,2013-04-27 13:02:00,
2013-04-27 09:08:00,55.7,39.8,30.42,NNE,32,1.0,5.0,55,0.00,,,0.00,531,Wunderground v.1.15,2013-04-27 13:08:00,
2013-04-27 09:13:00,56.5,41.0,30.42,NNW,348,1.0,1.0,56,0.00,,,0.00,550,Wunderground v.1.15,2013-04-27 13:13:00,
2013-04-27 09:20:00,57.2,40.7,30.42,South,190,1.0,1.0,54,0.00,,,0.00,566,Wunderground v.1.15,2013-04-27 13:20:00,
2013-04-27 09:26:00,57.9,40.9,30.41,North,9,0.0,2.0,53,0.00,,,0.00,584,Wunderground v.1.15,2013-04-27 13:26:00,
2013-04-27 09:32:00,58.5,41.4,30.42,SSW,202,0.0,0.0,53,0.00,,,0.00,599,Wunderground v.1.15,2013-04-27 13:32:00,
2013-04-27 09:37:00,59.1,40.5,30.42,WNW,299,0.0,2.0,50,0.00,,,0.00,619,Wunderground v.1.15,2013-04-27 13:37:00,
2013-04-27 09:44:00,59.4,40.2,30.41,East,92,1.0,6.0,49,0.00,,,0.00,635,Wunderground v.1.15,2013-04-27 13:44:00,
2013-04-27 09:49:00,59.7,40.0,30.41,SSW,200,2.0,2.0,48,0.00,,,0.00,650,Wunderground v.1.15,2013-04-27 13:49:00,
2013-04-27 09:56:00,60.1,39.8,30.41,NNW,329,1.0,6.0,47,0.00,,,0.00,664,Wunderground v.1.15,2013-04-27 13:56:00,
2013-04-27 10:02:00,60.2,38.8,30.41,NE,42,2.0,4.0,45,0.00,,,0.00,680,Wunderground v.1.15,2013-04-27 14:02:00,
2013-04-27 10:08:00,60.7,38.6,30.41,SSE,160,2.0,4.0,44,0.00,,,0.00,696,Wunderground v.1.15,2013-04-27 14:08:00,
2013-04-27 10:14:00,61.3,38.0,30.41,South,181,1.0,1.0,42,0.00,,,0.00,712,Wunderground v.1.15,2013-04-27 14:14:00,
2013-04-27 10:20:00,62.0,37.4,30.41,South,176,1.0,1.0,40,0.00,,,0.00,728,Wunderground v.1.15,2013-04-27 14:20:00,
2013-04-27 10:26:00,62.3,39.5,30.41,SE,142,1.0,1.0,43,0.00,,,0.00,740,Wunderground v.1.15,2013-04-27 14:26:00,
2013-04-27 10:32:00,62.7,38.0,30.41,NE,51,2.0,2.0,40,0.00,,,0.00,749,Wunderground v.1.15,2013-04-27 14:32:00,
2013-04-27 10:38:00,62.4,37.1,30.41,East,97,2.0,5.0,39,0.00,,,0.00,763,Wunderground v.1.15,2013-04-27 14:38:00,
2013-04-27 10:44:00,62.5,37.2,30.41,NE,39,2.0,6.0,39,0.00,,,0.00,777,Wunderground v.1.15,2013-04-27 14:44:00,
2013-04-27 10:50:00,62.5,37.2,30.41,SE,140,3.0,3.0,39,0.00,,,0.00,788,Wunderground v.1.15,2013-04-27 14:50:00,
2013-04-27 10:56:00,63.2,37.2,30.41,NE,44,1.0,3.0,38,0.00,,,0.00,802,Wunderground v.1.15,2013-04-27 14:56:00,
2013-04-27 11:02:00,63.3,37.2,30.40,SSE,161,2.0,4.0,38,0.00,,,0.00,810,Wunderground v.1.15,2013-04-27 15:02:00,
2013-04-27 11:08:00,64.1,37.3,30.41,WSW,250,1.0,4.0,37,0.00,,,0.00,821,Wunderground v.1.15,2013-04-27 15:08:00,
2013-04-27 11:14:00,64.7,35.7,30.40,NE,39,1.0,4.0,34,0.00,,,0.00,831,Wunderground v.1.15,2013-04-27 15:14:00,
2013-04-27 11:20:00,65.1,38.8,30.40,SE,133,1.0,5.0,38,0.00,,,0.00,842,Wunderground v.1.15,2013-04-27 15:20:00,
2013-04-27 11:26:00,65.6,37.9,30.40,SSW,205,1.0,5.0,36,0.00,,,0.00,849,Wunderground v.1.15,2013-04-27 15:26:00,
2013-04-27 11:32:00,65.7,36.5,30.40,NE,47,1.0,5.0,34,0.00,,,0.00,858,Wunderground v.1.15,2013-04-27 15:32:00,
2013-04-27 11:38:00,65.6,37.9,30.40,NNE,29,2.0,5.0,36,0.00,,,0.00,865,Wunderground v.1.15,2013-04-27 15:38:00,
2013-04-27 11:44:00,65.8,35.9,30.40,NNE,19,2.0,4.0,33,0.00,,,0.00,872,Wunderground v.1.15,2013-04-27 15:44:00,
2013-04-27 11:50:00,65.6,37.9,30.40,NW,319,2.0,3.0,36,0.00,,,0.00,879,Wunderground v.1.15,2013-04-27 15:50:00,
2013-04-27 11:56:00,66.0,36.8,30.39,SSW,197,1.0,3.0,34,0.00,,,0.00,882,Wunderground v.1.15,2013-04-27 15:56:00,
2013-04-27 12:02:00,66.9,38.3,30.39,SSE,148,1.0,1.0,35,0.00,,,0.00,893,Wunderground v.1.15,2013-04-27 16:02:00,
2013-04-27 12:08:00,66.7,36.7,30.39,SE,132,2.0,4.0,33,0.00,,,0.00,893,Wunderground v.1.15,2013-04-27 16:08:00,
2013-04-27 12:14:00,67.9,39.2,30.38,South,182,2.0,7.0,35,0.00,,,0.00,896,Wunderground v.1.15,2013-04-27 16:14:00,
2013-04-27 12:19:00,67.7,41.8,30.38,South,173,4.0,6.0,39,0.00,,,0.00,896,Wunderground v.1.15,2013-04-27 16:19:00,
2013-04-27 12:26:00,67.7,39.8,30.38,SSW,213,3.0,8.0,36,0.00,,,0.00,898,Wunderground v.1.15,2013-04-27 16:26:00,
2013-04-27 12:32:00,67.9,38.5,30.37,SSW,213,4.0,7.0,34,0.00,,,0.00,907,Wunderground v.1.15,2013-04-27 16:32:00,
2013-04-27 12:38:00,67.9,39.9,30.37,SSW,202,5.0,7.0,36,0.00,,,0.00,977,Wunderground v.1.15,2013-04-27 16:38:00,
2013-04-27 12:44:00,67.8,39.9,30.37,SSW,203,6.0,6.0,36,0.00,,,0.00,993,Wunderground v.1.15,2013-04-27 16:44:00,
2013-04-27 12:50:00,68.7,39.2,30.37,SW,232,4.0,4.0,34,0.00,,,0.00,935,Wunderground v.1.15,2013-04-27 16:50:00,
2013-04-27 12:56:00,68.8,40.0,30.37,SSW,197,2.0,6.0,35,0.00,,,0.00,970,Wunderground v.1.15,2013-04-27 16:56:00,
2013-04-27 13:02:00,68.5,39.8,30.37,SSW,192,3.0,6.0,35,0.00,,,0.00,935,Wunderground v.1.15,2013-04-27 17:02:00,
2013-04-27 13:08:00,67.7,39.0,30.37,SSW,205,6.0,8.0,35,0.00,,,0.00,946,Wunderground v.1.15,2013-04-27 17:08:00,
2013-04-27 13:14:00,67.2,40.0,30.37,SSW,207,6.0,9.0,37,0.00,,,0.00,902,Wunderground v.1.15,2013-04-27 17:14:00,
2013-04-27 13:20:00,67.0,39.1,30.37,SSW,196,5.0,5.0,36,0.00,,,0.00,895,Wunderground v.1.15,2013-04-27 17:20:00,
2013-04-27 13:26:00,67.2,38.6,30.36,SSW,209,5.0,6.0,35,0.00,,,0.00,888,Wunderground v.1.15,2013-04-27 17:26:00,
2013-04-27 13:32:00,67.3,39.4,30.36,South,191,5.0,6.0,36,0.00,,,0.00,879,Wunderground v.1.15,2013-04-27 17:32:00,
2013-04-27 13:38:00,67.4,39.5,30.36,SSW,194,4.0,6.0,36,0.00,,,0.00,870,Wunderground v.1.15,2013-04-27 17:38:00,
2013-04-27 13:44:00,67.9,39.9,30.36,South,188,2.0,6.0,36,0.00,,,0.00,872,Wunderground v.1.15,2013-04-27 17:44:00,
2013-04-27 13:49:00,68.2,40.2,30.36,SSE,161,2.0,2.0,36,0.00,,,0.00,868,Wunderground v.1.15,2013-04-27 17:49:00,
2013-04-27 13:56:00,68.1,39.4,30.36,SSW,199,3.0,7.0,35,0.00,,,0.00,861,Wunderground v.1.15,2013-04-27 17:56:00,
2013-04-27 14:02:00,67.9,39.2,30.35,South,175,4.0,4.0,35,0.00,,,0.00,858,Wunderground v.1.15,2013-04-27 18:02:00,
2013-04-27 14:08:00,67.7,39.8,30.35,South,178,4.0,8.0,36,0.00,,,0.00,851,Wunderground v.1.15,2013-04-27 18:08:00,
2013-04-27 14:14:00,67.1,39.9,30.35,SSW,208,5.0,6.0,37,0.00,,,0.00,842,Wunderground v.1.15,2013-04-27 18:14:00,
2013-04-27 14:20:00,66.7,39.6,30.35,SSW,198,4.0,9.0,37,0.00,,,0.00,831,Wunderground v.1.15,2013-04-27 18:20:00,
2013-04-27 14:25:00,66.5,39.4,30.35,SSW,195,4.0,9.0,37,0.00,,,0.00,823,Wunderground v.1.15,2013-04-27 18:25:00,
2013-04-27 14:32:00,66.9,39.1,30.35,SSE,163,2.0,3.0,36,0.00,,,0.00,816,Wunderground v.1.15,2013-04-27 18:32:00,
2013-04-27 14:38:00,67.1,40.6,30.35,South,186,3.0,6.0,38,0.00,,,0.00,807,Wunderground v.1.15,2013-04-27 18:38:00,
2013-04-27 14:44:00,66.8,39.7,30.34,South,188,5.0,7.0,37,0.00,,,0.00,796,Wunderground v.1.15,2013-04-27 18:44:00,
2013-04-27 14:50:00,66.2,39.8,30.34,WSW,239,6.0,6.0,38,0.00,,,0.00,782,Wunderground v.1.15,2013-04-27 18:50:00,
2013-04-27 14:56:00,66.0,41.0,30.34,South,185,5.0,8.0,40,0.00,,,0.00,772,Wunderground v.1.15,2013-04-27 18:56:00,
2013-04-27 15:02:00,65.7,45.5,30.34,SSW,208,4.0,6.0,48,0.00,,,0.00,758,Wunderground v.1.15,2013-04-27 19:02:00,
2013-04-27 15:08:00,65.3,44.0,30.34,SSW,194,5.0,6.0,46,0.00,,,0.00,751,Wunderground v.1.15,2013-04-27 19:08:00,
2013-04-27 15:14:00,65.0,46.9,30.34,South,185,5.0,8.0,52,0.00,,,0.00,735,Wunderground v.1.15,2013-04-27 19:14:00,
2013-04-27 15:20:00,64.7,47.2,30.34,South,188,5.0,5.0,53,0.00,,,0.00,721,Wunderground v.1.15,2013-04-27 19:20:00,
2013-04-27 15:26:00,64.3,46.3,30.33,SW,226,5.0,9.0,52,0.00,,,0.00,707,Wunderground v.1.15,2013-04-27 19:26:00,
2013-04-27 15:32:00,64.2,44.6,30.33,South,191,5.0,8.0,49,0.00,,,0.00,698,Wunderground v.1.15,2013-04-27 19:32:00,
2013-04-27 15:38:00,64.3,48.3,30.33,SW,229,5.0,8.0,56,0.00,,,0.00,682,Wunderground v.1.15,2013-04-27 19:38:00,
2013-04-27 15:44:00,64.5,46.0,30.33,SW,233,5.0,5.0,51,0.00,,,0.00,670,Wunderground v.1.15,2013-04-27 19:44:00,
2013-04-27 15:49:00,64.4,44.3,30.33,SSW,202,5.0,8.0,48,0.00,,,0.00,657,Wunderground v.1.15,2013-04-27 19:49:00,
2013-04-27 15:56:00,64.2,42.4,30.33,SSW,200,6.0,8.0,45,0.00,,,0.00,638,Wunderground v.1.15,2013-04-27 19:56:00,
2013-04-27 16:02:00,64.5,40.9,30.33,South,184,4.0,5.0,42,0.00,,,0.00,624,Wunderground v.1.15,2013-04-27 20:02:00,
2013-04-27 16:08:00,65.0,40.7,30.33,SSW,196,3.0,5.0,41,0.00,,,0.00,610,Wunderground v.1.15,2013-04-27 20:08:00,
2013-04-27 16:14:00,65.3,42.2,30.33,SSW,203,3.0,9.0,43,0.00,,,0.00,594,Wunderground v.1.15,2013-04-27 20:14:00,
2013-04-27 16:20:00,65.2,38.9,30.33,South,185,5.0,6.0,38,0.00,,,0.00,577,Wunderground v.1.15,2013-04-27 20:20:00,
2013-04-27 16:26:00,65.2,40.9,30.33,SSW,209,5.0,8.0,41,0.00,,,0.00,563,Wunderground v.1.15,2013-04-27 20:26:00,
2013-04-27 16:32:00,65.4,42.3,30.33,SSW,205,3.0,4.0,43,0.00,,,0.00,543,Wunderground v.1.15,2013-04-27 20:32:00,
2013-04-27 16:38:00,65.6,41.3,30.33,South,191,3.0,7.0,41,0.00,,,0.00,524,Wunderground v.1.15,2013-04-27 20:38:00,
2013-04-27 16:44:00,65.5,39.2,30.32,South,184,4.0,4.0,38,0.00,,,0.00,506,Wunderground v.1.15,2013-04-27 20:44:00,
2013-04-27 16:50:00,65.5,39.9,30.32,SSW,194,4.0,4.0,39,0.00,,,0.00,489,Wunderground v.1.15,2013-04-27 20:50:00,
2013-04-27 16:56:00,65.2,39.6,30.32,SSW,194,5.0,7.0,39,0.00,,,0.00,471,Wunderground v.1.15,2013-04-27 20:56:00,
2013-04-27 17:02:00,64.6,39.7,30.32,SSW,210,6.0,8.0,40,0.00,,,0.00,452,Wunderground v.1.15,2013-04-27 21:02:00,
2013-04-27 17:08:00,64.5,39.0,30.32,South,186,5.0,8.0,39,0.00,,,0.00,432,Wunderground v.1.15,2013-04-27 21:08:00,
2013-04-27 17:14:00,64.4,42.6,30.32,South,186,5.0,6.0,45,0.00,,,0.00,413,Wunderground v.1.15,2013-04-27 21:14:00,
2013-04-27 17:20:00,64.2,46.2,30.32,SSW,205,5.0,5.0,52,0.00,,,0.00,396,Wunderground v.1.15,2013-04-27 21:20:00,
2013-04-27 17:26:00,63.8,43.2,30.32,SW,219,6.0,7.0,47,0.00,,,0.00,373,Wunderground v.1.15,2013-04-27 21:26:00,
2013-04-27 17:32:00,63.7,44.7,30.32,SSW,209,4.0,6.0,50,0.00,,,0.00,327,Wunderground v.1.15,2013-04-27 21:32:00,
2013-04-27 17:38:00,63.6,45.1,30.32,SW,223,4.0,6.0,51,0.00,,,0.00,178,Wunderground v.1.15,2013-04-27 21:38:00,
2013-04-27 17:44:00,63.5,44.5,30.32,South,186,3.0,5.0,50,0.00,,,0.00,176,Wunderground v.1.15,2013-04-27 21:44:00,
2013-04-27 17:50:00,63.3,43.8,30.32,SSW,198,4.0,4.0,49,0.00,,,0.00,69,Wunderground v.1.15,2013-04-27 21:50:00,
2013-04-27 17:56:00,63.0,43.5,30.32,South,188,4.0,4.0,49,0.00,,,0.00,102,Wunderground v.1.15,2013-04-27 21:56:00,
2013-04-27 18:02:00,62.9,42.9,30.32,SSW,198,4.0,7.0,48,0.00,,,0.00,120,Wunderground v.1.15,2013-04-27 22:02:00,
2013-04-27 18:08:00,62.8,42.8,30.31,SSW,209,4.0,7.0,48,0.00,,,0.00,148,Wunderground v.1.15,2013-04-27 22:08:00,
2013-04-27 18:14:00,62.6,41.5,30.32,SSW,197,4.0,6.0,46,0.00,,,0.00,116,Wunderground v.1.15,2013-04-27 22:14:00,
2013-04-27 18:20:00,62.4,39.0,30.32,South,190,4.0,4.0,42,0.00,,,0.00,56,Wunderground v.1.15,2013-04-27 22:20:00,
2013-04-27 18:26:00,62.2,38.8,30.32,South,190,3.0,5.0,42,0.00,,,0.00,93,Wunderground v.1.15,2013-04-27 22:26:00,
2013-04-27 18:32:00,62.1,38.7,30.32,South,190,3.0,5.0,42,0.00,,,0.00,114,Wunderground v.1.15,2013-04-27 22:32:00,
2013-04-27 18:38:00,61.9,39.1,30.32,SSW,194,3.0,5.0,43,0.00,,,0.00,56,Wunderground v.1.15,2013-04-27 22:38:00,
2013-04-27 18:44:00,61.8,39.1,30.32,SSW,204,3.0,4.0,43,0.00,,,0.00,56,Wunderground v.1.15,2013-04-27 22:44:00,
2013-04-27 18:50:00,61.6,39.5,30.32,South,184,3.0,5.0,44,0.00,,,0.00,51,Wunderground v.1.15,2013-04-27 22:50:00,
2013-04-27 18:56:00,61.4,39.9,30.31,South,176,3.0,6.0,45,0.00,,,0.00,46,Wunderground v.1.15,2013-04-27 22:56:00,
2013-04-27 19:02:00,61.1,39.6,30.31,SSW,194,3.0,4.0,45,0.00,,,0.00,40,Wunderground v.1.15,2013-04-27 23:02:00,
2013-04-27 19:08:00,60.8,39.9,30.31,SSW,194,2.0,4.0,46,0.00,,,0.00,37,Wunderground v.1.15,2013-04-27 23:08:00,
2013-04-27 19:14:00,60.6,39.1,30.31,South,184,1.0,2.0,45,0.00,,,0.00,23,Wunderground v.1.15,2013-04-27 23:14:00,
2013-04-27 19:19:00,60.2,40.4,30.31,South,184,1.0,1.0,48,0.00,,,0.00,16,Wunderground v.1.15,2013-04-27 23:19:00,
2013-04-27 19:26:00,59.8,40.6,30.31,South,184,0.0,2.0,49,0.00,,,0.00,14,Wunderground v.1.15,2013-04-27 23:26:00,
2013-04-27 19:32:00,59.5,40.8,30.31,South,184,0.0,0.0,50,0.00,,,0.00,9,Wunderground v.1.15,2013-04-27 23:32:00,
2013-04-27 19:38:00,59.0,40.9,30.31,South,184,0.0,0.0,51,0.00,,,0.00,5,Wunderground v.1.15,2013-04-27 23:38:00,
2013-04-27 19:44:00,58.6,41.0,30.31,South,184,0.0,1.0,52,0.00,,,0.00,0,Wunderground v.1.15,2013-04-27 23:44:00,
2013-04-27 19:50:00,58.2,41.6,30.31,South,184,0.0,0.0,54,0.00,,,0.00,0,Wunderground v.1.15,2013-04-27 23:50:00,
2013-04-27 19:56:00,57.7,41.6,30.30,South,184,0.0,0.0,55,0.00,,,0.00,0,Wunderground v.1.15,2013-04-27 23:56:00,
2013-04-27 20:02:00,57.2,41.2,30.30,South,184,0.0,0.0,55,0.00,,,0.00,0,Wunderground v.1.15,2013-04-28 00:02:00,
2013-04-27 20:08:00,56.9,41.4,30.30,South,184,0.0,0.0,56,0.00,,,0.00,0,Wunderground v.1.15,2013-04-28 00:08:00,
2013-04-27 20:14:00,56.6,42.0,30.30,South,184,0.0,0.0,58,0.00,,,0.00,0,Wunderground v.1.15,2013-04-28 00:14:00,
2013-04-27 20:20:00,56.1,42.4,30.30,South,184,0.0,0.0,60,0.00,,,0.00,0,Wunderground v.1.15,2013-04-28 00:20:00,
2013-04-27 20:26:00,55.6,42.4,30.30,South,184,0.0,0.0,61,0.00,,,0.00,0,Wunderground v.1.15,2013-04-28 00:26:00,
2013-04-27 20:32:00,55.2,42.4,30.31,South,184,0.0,0.0,62,0.00,,,0.00,0,Wunderground v.1.15,2013-04-28 00:32:00,
2013-04-27 20:38:00,54.8,42.4,30.31,South,184,0.0,0.0,63,0.00,,,0.00,0,Wunderground v.1.15,2013-04-28 00:38:00,
2013-04-27 20:44:00,54.4,42.1,30.31,South,184,0.0,0.0,63,0.00,,,0.00,0,Wunderground v.1.15,2013-04-28 00:44:00,
2013-04-27 20:50:00,53.9,42.0,30.31,South,184,0.0,0.0,64,0.00,,,0.00,0,Wunderground v.1.15,2013-04-28 00:50:00,
2013-04-27 20:56:00,53.4,42.3,30.31,South,184,0.0,0.0,66,0.00,,,0.00,0,Wunderground v.1.15,2013-04-28 00:56:00,
2013-04-27 21:02:00,52.9,42.6,30.32,South,184,0.0,0.0,68,0.00,,,0.00,0,Wunderground v.1.15,2013-04-28 01:02:00,
2013-04-27 21:08:00,52.6,43.5,30.32,South,184,0.0,1.0,71,0.00,,,0.00,0,Wunderground v.1.15,2013-04-28 01:08:00,
2013-04-27 21:14:00,52.2,43.8,30.32,South,184,0.0,0.0,73,0.00,,,0.00,0,Wunderground v.1.15,2013-04-28 01:14:00,
2013-04-27 21:20:00,51.9,44.2,30.32,South,184,0.0,0.0,75,0.00,,,0.00,0,Wunderground v.1.15,2013-04-28 01:20:00,
2013-04-27 21:26:00,51.7,44.0,30.32,South,184,0.0,0.0,75,0.00,,,0.00,0,Wunderground v.1.15,2013-04-28 01:26:00,
2013-04-27 21:32:00,51.4,44.1,30.32,South,184,0.0,0.0,76,0.00,,,0.00,0,Wunderground v.1.15,2013-04-28 01:32:00,
2013-04-27 21:38:00,51.2,44.2,30.32,South,184,0.0,0.0,77,0.00,,,0.00,0,Wunderground v.1.15,2013-04-28 01:38:00,
2013-04-27 21:43:00,51.0,44.0,30.32,South,184,0.0,0.0,77,0.00,,,0.00,0,Wunderground v.1.15,2013-04-28 01:43:00,
2013-04-27 21:50:00,50.9,44.3,30.32,South,184,0.0,0.0,78,0.00,,,0.00,0,Wunderground v.1.15,2013-04-28 01:50:00,
2013-04-27 21:56:00,50.7,44.1,30.32,South,184,0.0,0.0,78,0.00,,,0.00,0,Wunderground v.1.15,2013-04-28 01:56:00,
2013-04-27 22:02:00,50.5,44.2,30.32,South,184,0.0,0.0,79,0.00,,,0.00,0,Wunderground v.1.15,2013-04-28 02:02:00,
2013-04-27 22:08:00,50.2,43.6,30.32,South,184,0.0,0.0,78,0.00,,,0.00,0,Wunderground v.1.15,2013-04-28 02:08:00,
2013-04-27 22:14:00,50.0,43.7,30.32,South,184,0.0,0.0,79,0.00,,,0.00,0,Wunderground v.1.15,2013-04-28 02:14:00,
2013-04-27 22:20:00,49.8,43.5,30.32,South,184,0.0,0.0,79,0.00,,,0.00,0,Wunderground v.1.15,2013-04-28 02:20:00,
2013-04-27 22:26:00,49.5,43.3,30.32,South,184,0.0,0.0,79,0.00,,,0.00,0,Wunderground v.1.15,2013-04-28 02:26:00,
2013-04-27 22:32:00,49.3,43.1,30.32,South,184,0.0,0.0,79,0.00,,,0.00,0,Wunderground v.1.15,2013-04-28 02:32:00,
2013-04-27 22:38:00,49.1,43.5,30.31,South,184,0.0,0.0,81,0.00,,,0.00,0,Wunderground v.1.15,2013-04-28 02:38:00,
2013-04-27 22:44:00,48.8,43.2,30.31,South,184,0.0,0.0,81,0.00,,,0.00,0,Wunderground v.1.15,2013-04-28 02:44:00,
2013-04-27 22:50:00,48.5,42.9,30.31,South,184,0.0,0.0,81,0.00,,,0.00,0,Wunderground v.1.15,2013-04-28 02:50:00,
2013-04-27 22:56:00,48.3,42.7,30.31,South,184,0.0,0.0,81,0.00,,,0.00,0,Wunderground v.1.15,2013-04-28 02:56:00,
2013-04-27 23:02:00,48.1,42.9,30.31,South,184,0.0,0.0,82,0.00,,,0.00,0,Wunderground v.1.15,2013-04-28 03:02:00,
2013-04-27 23:08:00,47.9,43.0,30.31,South,184,0.0,0.0,83,0.00,,,0.00,0,Wunderground v.1.15,2013-04-28 03:08:00,
2013-04-27 23:14:00,47.8,43.2,30.30,South,184,0.0,0.0,84,0.00,,,0.00,0,Wunderground v.1.15,2013-04-28 03:14:00,
2013-04-27 23:20:00,47.6,43.0,30.30,South,184,0.0,0.0,84,0.00,,,0.00,0,Wunderground v.1.15,2013-04-28 03:20:00,
2013-04-27 23:26:00,47.5,43.2,30.31,South,184,0.0,0.0,85,0.00,,,0.00,0,Wunderground v.1.15,2013-04-28 03:26:00,
2013-04-27 23:32:00,47.3,43.0,30.30,South,184,0.0,0.0,85,0.00,,,0.00,0,Wunderground v.1.15,2013-04-28 03:32:00,
2013-04-27 23:37:00,47.0,42.7,30.30,South,184,0.0,0.0,85,0.00,,,0.00,0,Wunderground v.1.15,2013-04-28 03:37:00,
2013-04-27 23:44:00,46.8,42.8,30.30,South,184,0.0,0.0,86,0.00,,,0.00,0,Wunderground v.1.15,2013-04-28 03:44:00,
2013-04-27 23:50:00,46.6,42.6,30.30,South,184,0.0,0.0,86,0.00,,,0.00,0,Wunderground v.1.15,2013-04-28 03:50:00,
2013-04-27 23:56:00,46.4,42.4,30.31,South,184,0.0,0.0,86,0.00,,,0.00,0,Wunderground v.1.15,2013-04-28 03:56:00,